Location: Ahstedt
(52.2048°N, 10.1060°E)
Time: 19:55:48
(UTC+00:00)

SeaSat 1 - Pass Details

Date: 18 January 2026
Orbit: 737 x 740 km, 108.0° (Epoch: 16 February)

Event Time Altitude Azimuth Distance (km) Brightness Sun altitude
Rises 05:26:39 0° 36° (NE) 3,186 6.0 -16.6°
Reaches altitude 10° 05:29:05 10° 44° (NE) 2,258 5.3 -16.2°
Maximum altitude 05:33:38 37° 112° (ESE) 1,137 4.0 -15.5°
Drops below altitude 10° 05:38:09 10° 180° (S) 2,244 5.1 -14.9°
Sets 05:40:33 0° 189° (S) 3,163 5.8 -14.5°
